map of CWC home
Great Circle Mapper logo
CWC - Airport
Location
City:  Chernivtsi, Chernivtsi, Ukraine
Near (Alt.):Chernovtsy
ICAO:UKLN
IATA:CWC

Details
Type:Airport (Aerodrome, Airfield)
Use:Public/Civil, International (customs port of entry)
Latitude:4815'34"N (48.259322)
Longitude:2558'51"E (25.980831)
Datum:WGS 1984
Elevation:826 ft (252 m)
Variation:6.06E (WMM2015 magnetic declination)
0.11 annual change
Runways:1
Longest:7270 × 138 ft (2216 × 42 m), paved

Time
Time Zone:UTC+2 (DST+3)
Local Time:

Weather
METAR:UKLN 241000Z 31003MPS 230V010 CAVOK 26/14 Q1018 R33/09//70 NOSIG

Related Locations
Nearby:
Farthest:CHT: 11321 mi / 18220 km
Waitangi [Tuuta], Chatham Islands, NZ

Find:

   beyond  
but within

Other Information
Maps:
NOTAMs:
Links:
Sources:

  
flag of Ukraine
flag of Chernivtsi
  

Sectional Chart

Flight Planning
at skyvector.com

Satellite Image

Google Maps Satellite view

 

Copyright © 2004-2016 Karl L. Swartz. All rights reserved.
The Great Circle Mapper name and logo are trademarks of the Great Circle Mapper.
All other trademarks mentioned herein belong to their respective owners.
Please see credits for attibutions and further copyright information.

  Follow gcmap on Facebook Follow gcmap on Twitter Follow gcmap on Google+ GCmap on LinkedIn

hCard Microformat

Geo Microformat